Le nostre stazioni meteo in Italia

Pubblicità
Il mio iltempo24.it
Luqa, Malta (16597): Temperatura & dewpoint: 15.01.2017 22:00:00 - 21.01.2017 22:00:00 (CET)Luqa, Malta (16597): velocità del vento: 15.01.2017 22:00:00 - 21.01.2017 22:00:00 (CET)Luqa, Malta (16597): direzione del vento: 15.01.2017 22:00:00 - 21.01.2017 22:00:00 (CET)Luqa, Malta (16597): reduced air pressure: 15.01.2017 22:00:00 - 21.01.2017 22:00:00 (CET)Luqa, Malta (16597): visibility: 15.01.2017 22:00:00 - 21.01.2017 22:00:00 (CET)
Data & Tempo tt [°C] td [°C] ff [km/h] ff [kn] dd ppp [hPa] vv [km]
21.01.2017 22:00:00 14,7 11,9 41 22 SE 1018,8 7
21.01.2017 21:00:00 15,0 12,0 39 21 SE - 8
21.01.2017 20:00:00 15,0 10,0 46 25 SE - 9
21.01.2017 19:00:00 15,1 11,2 42 23 SE 1018,4 9
21.01.2017 18:00:00 15,0 11,0 41 22 SE - 9
21.01.2017 17:00:00 15,0 11,0 42 23 SE - 9
21.01.2017 16:00:00 15,4 11,2 44 24 SE 1017,3 9
21.01.2017 15:00:00 16,0 11,0 41 22 SSE - 9
21.01.2017 14:00:00 16,0 11,0 42 23 SSE - 9
21.01.2017 13:00:00 16,4 11,6 42 23 SSE 1017,7 9
21.01.2017 12:00:00 16,0 12,0 44 24 SE - 9
21.01.2017 11:00:00 17,0 12,0 46 25 SE - 8
21.01.2017 10:00:00 15,7 12,2 41 22 SE 1019,8 8
21.01.2017 09:00:00 15,0 12,0 42 23 SE - 10
21.01.2017 08:00:00 15,0 11,0 42 23 SE - 10
21.01.2017 07:00:00 14,2 11,1 42 23 SE 1019,1 10
21.01.2017 06:00:00 14,0 11,0 41 22 SE - 10
21.01.2017 05:00:00 14,0 11,0 44 24 SE - 10
21.01.2017 04:00:00 14,1 10,4 44 24 SE 1019,5 10
21.01.2017 03:00:00 14,0 11,0 46 25 SE - 10
21.01.2017 02:00:00 14,0 11,0 44 24 SE - 10
21.01.2017 01:00:00 14,5 11,9 41 22 SE 1020,5 10
21.01.2017 00:00:00 14,0 11,0 35 19 SE - 10
20.01.2017 23:00:00 15,0 11,0 39 21 SE - 10
20.01.2017 22:00:00 14,5 10,8 35 19 SE 1021,7 10
20.01.2017 21:00:00 14,0 11,0 35 19 SE - 10
20.01.2017 20:00:00 15,0 11,0 29 16 ESE - 10
20.01.2017 19:00:00 14,7 12,1 31 17 ESE 1021,3 10
20.01.2017 18:00:00 15,0 12,0 26 14 ESE - 10
20.01.2017 17:00:00 15,0 12,0 28 15 ESE - 10
20.01.2017 16:00:00 15,1 11,3 28 15 ESE 1021,1 10
20.01.2017 15:00:00 16,0 11,0 34 18 ESE - 10
20.01.2017 14:00:00 16,0 11,0 34 18 ESE - 10
20.01.2017 13:00:00 15,2 9,8 34 18 ESE 1022,1 10
20.01.2017 12:00:00 15,0 10,0 29 16 SE - 10
20.01.2017 11:00:00 15,0 10,0 28 15 ESE - 10
20.01.2017 10:00:00 14,0 8,4 26 14 ESE 1023,6 10
20.01.2017 09:00:00 14,0 8,0 22 12 ESE - 10
20.01.2017 08:00:00 12,0 6,0 18 10 ESE - 10
20.01.2017 07:00:00 10,9 5,8 16 9 ESE 1023,1 10
20.01.2017 06:00:00 11,0 6,0 16 9 ESE - 10
20.01.2017 05:00:00 9,0 6,0 11 6 ESE - 10
20.01.2017 04:00:00 9,0 5,2 8 4 ESE 1023,4 10
20.01.2017 03:00:00 9,0 5,0 8 4 SE - 10
20.01.2017 02:00:00 8,0 5,0 4 2 ESE - 10
20.01.2017 01:00:00 8,2 5,1 2 1 - 1023,4 10
20.01.2017 00:00:00 8,0 5,0 2 1 NE - 10
19.01.2017 23:00:00 8,0 5,0 2 1 E - 10
19.01.2017 22:00:00 8,3 5,2 2 1 S 1023,5 10
19.01.2017 21:00:00 9,0 5,0 2 1 - - 10
19.01.2017 20:00:00 10,0 5,0 2 1 - - 10
19.01.2017 19:00:00 10,3 5,6 2 1 O 1022,7 10
19.01.2017 18:00:00 11,0 5,0 4 2 NO - 10
19.01.2017 17:00:00 12,0 5,0 8 4 O - 10
19.01.2017 16:00:00 13,6 5,1 9 5 O 1021,1 10
19.01.2017 15:00:00 14,0 5,0 11 6 O - 10
19.01.2017 14:00:00 15,0 6,0 13 7 O - 10
19.01.2017 13:00:00 13,8 6,0 15 8 O 1020,8 10
19.01.2017 12:00:00 15,0 8,0 15 8 O - 10
19.01.2017 11:00:00 14,0 7,0 13 7 O - 10
19.01.2017 10:00:00 13,5 6,8 15 8 ONO 1021,2 10
19.01.2017 09:00:00 12,0 7,0 11 6 ONO - 10
19.01.2017 08:00:00 11,0 7,0 9 5 ONO - 10
19.01.2017 07:00:00 10,8 7,3 11 6 O 1019,4 10
19.01.2017 06:00:00 10,0 7,0 13 7 SO - 10
19.01.2017 05:00:00 9,0 7,0 9 5 OSO - 8
19.01.2017 04:00:00 11,8 4,4 18 10 NO 1017,9 10
19.01.2017 03:00:00 12,0 5,0 16 9 O - 10
19.01.2017 02:00:00 12,0 5,0 16 9 OSO - 10
19.01.2017 01:00:00 11,2 5,4 16 9 OSO 1016,5 10
19.01.2017 00:00:00 11,0 5,0 15 8 O - 10
18.01.2017 23:00:00 11,0 6,0 16 9 O - 10
18.01.2017 22:00:00 11,3 4,8 18 10 O 1015,9 10
18.01.2017 21:00:00 12,0 6,0 21 11 O - 10
18.01.2017 20:00:00 11,0 6,0 21 11 OSO - 10
18.01.2017 19:00:00 11,2 4,3 22 12 O 1014,1 10
18.01.2017 18:00:00 11,0 5,0 21 11 O - 10
18.01.2017 17:00:00 11,0 5,0 24 13 O - 10
18.01.2017 16:00:00 12,2 4,3 28 15 O 1011,6 10
18.01.2017 15:00:00 13,0 5,0 26 14 O - 10
18.01.2017 14:00:00 13,0 5,0 34 18 O - 10
18.01.2017 13:00:00 12,3 4,4 34 18 O 1010,0 10
18.01.2017 12:00:00 11,0 5,0 28 15 O - 10
18.01.2017 11:00:00 12,0 5,0 26 14 O - 10
18.01.2017 10:00:00 11,5 2,3 24 13 O 1009,7 10
18.01.2017 09:00:00 11,0 2,0 24 13 O - 10
18.01.2017 08:00:00 10,0 2,0 18 10 O - 10
18.01.2017 07:00:00 10,5 2,0 22 12 O 1007,5 10
18.01.2017 06:00:00 11,0 2,0 21 11 OSO - 10
18.01.2017 05:00:00 10,0 2,0 15 8 OSO - 10
18.01.2017 04:00:00 10,0 2,2 15 8 O 1006,7 10
18.01.2017 03:00:00 10,0 2,0 16 9 O - 10
18.01.2017 02:00:00 10,0 2,0 22 12 O - 10
18.01.2017 01:00:00 8,8 3,1 16 9 O 1007,3 10
18.01.2017 00:00:00 10,0 3,0 18 10 NO - 8
17.01.2017 23:00:00 10,0 3,0 26 14 OSO - 10
17.01.2017 22:00:00 10,3 3,3 24 13 O 1007,1 10
17.01.2017 21:00:00 10,0 3,0 21 11 O - 10
17.01.2017 20:00:00 9,0 4,0 24 13 OSO - 10
17.01.2017 19:00:00 9,8 3,4 26 14 O 1006,4 10
17.01.2017 18:00:00 9,0 4,0 24 13 OSO - 10
17.01.2017 17:00:00 8,0 4,0 16 9 OSO - 10
17.01.2017 16:00:00 8,5 4,0 13 7 OSO 1006,3 8
17.01.2017 15:00:00 11,0 3,0 24 13 O - 10
17.01.2017 14:00:00 11,0 3,0 28 15 O - 10
17.01.2017 13:00:00 11,6 3,4 28 15 O 1005,1 10
17.01.2017 12:00:00 12,0 5,0 31 17 O - 10
17.01.2017 11:00:00 11,0 6,0 29 16 O - 10
17.01.2017 10:00:00 11,1 4,8 31 17 O 1005,5 8
17.01.2017 09:00:00 12,0 1,0 29 16 OSO - 10
17.01.2017 08:00:00 11,0 2,0 26 14 O - 10
17.01.2017 07:00:00 10,3 4,1 31 17 O 1005,0 10
17.01.2017 06:00:00 12,0 3,0 29 16 OSO - 10
17.01.2017 05:00:00 12,0 2,0 31 17 OSO - 10
17.01.2017 04:00:00 11,0 4,0 34 18 OSO - 10
17.01.2017 03:00:00 11,0 2,0 31 17 O - 10
17.01.2017 02:00:00 9,0 3,0 16 9 O - 10
17.01.2017 01:00:00 9,2 4,4 8 4 O 1007,1 10
17.01.2017 00:00:00 9,0 4,0 24 13 O - 10
16.01.2017 23:00:00 9,0 4,0 24 13 O - 10
16.01.2017 22:00:00 9,7 4,2 22 12 O 1008,4 10
16.01.2017 21:00:00 10,0 3,0 24 13 O - 10
16.01.2017 20:00:00 10,0 4,0 34 18 OSO - 10
16.01.2017 19:00:00 9,8 3,4 18 10 O 1008,4 10
16.01.2017 18:00:00 10,0 4,0 24 13 ONO - 10
16.01.2017 17:00:00 10,0 3,0 21 11 O - 10
16.01.2017 16:00:00 11,0 4,6 28 15 ONO 1008,2 10
16.01.2017 15:00:00 11,0 5,0 29 16 NO - 10
16.01.2017 14:00:00 12,0 4,0 29 16 ONO - 10
16.01.2017 13:00:00 12,6 4,3 41 22 ONO 1007,9 10
16.01.2017 12:00:00 12,0 5,0 29 16 ONO - 10
16.01.2017 11:00:00 11,0 5,0 37 20 ONO - 10
16.01.2017 10:00:00 10,7 4,9 39 21 ONO 1008,3 10
16.01.2017 09:00:00 10,0 5,0 39 21 ONO - 10
16.01.2017 08:00:00 10,0 4,0 29 16 O - 10
16.01.2017 07:00:00 10,2 2,2 31 17 O 1007,9 10
16.01.2017 06:00:00 10,0 2,0 31 17 O - 10
16.01.2017 05:00:00 10,0 3,0 31 17 O - 10
16.01.2017 04:00:00 10,6 1,8 26 14 OSO 1008,8 10
16.01.2017 03:00:00 11,0 1,0 31 17 O - 10
16.01.2017 02:00:00 11,0 1,0 35 19 O - 10
16.01.2017 01:00:00 11,1 1,4 31 17 O 1010,2 10
16.01.2017 00:00:00 11,0 2,0 31 17 O - 10
15.01.2017 23:00:00 11,0 2,0 28 15 O - 10
15.01.2017 22:00:00 10,4 2,8 28 15 O 1011,9 10

tt = Temperatura
td = dewpoint
ff = velocità del vento
dd = direzione del vento
ppp = reduced air pressure
vv = visibility

Stazioni seguenti

WeatherPro
AMSI
MeteoEarth